Time,TemperatureF,DewpointF,PressureIn,WindDirection,WindDirectionDegrees,WindSpeedMPH,WindSpeedGustMPH,Humidity,HourlyPrecipIn,Conditions,Clouds,dailyrainin,SoftwareType,DateUTC
2013-09-11 00:13:00,73.0,63.0,29.93,NNE,22,0.0,-999.0,72,-99.99,,,-99.99,,2013-09-11 05:13:00,
2013-09-11 00:23:00,74.0,64.0,29.94,NNE,22,0.0,-999.0,72,-99.99,,,-99.99,,2013-09-11 05:23:00,
2013-09-11 00:53:00,73.0,65.0,29.94,NNE,22,0.0,-999.0,75,-99.99,,,-99.99,,2013-09-11 05:53:00,
2013-09-11 01:12:00,72.0,64.0,29.94,NNE,22,0.0,-999.0,76,-99.99,,,-99.99,,2013-09-11 06:12:00,
2013-09-11 01:22:00,72.0,64.0,29.94,NNE,22,0.0,-999.0,77,-99.99,,,-99.99,,2013-09-11 06:22:00,
2013-09-11 01:42:00,72.0,65.0,29.94,NNE,22,0.0,-999.0,79,-99.99,,,-99.99,,2013-09-11 06:42:00,
2013-09-11 01:52:00,72.0,65.0,29.95,NNE,22,0.0,-999.0,78,-99.99,,,-99.99,,2013-09-11 06:52:00,
2013-09-11 02:12:00,71.0,64.0,29.94,NNE,22,0.0,-999.0,78,-99.99,,,-99.99,,2013-09-11 07:12:00,
2013-09-11 02:23:00,71.0,64.0,29.94,NNE,22,0.0,-999.0,78,-99.99,,,-99.99,,2013-09-11 07:23:00,
2013-09-11 02:52:00,71.0,65.0,29.97,NNE,18,0.0,-999.0,80,-99.99,,,-99.99,,2013-09-11 07:52:00,
2013-09-11 03:11:00,69.0,65.0,30.01,SSW,208,5.0,-999.0,86,-99.99,,,-99.99,,2013-09-11 08:11:00,
2013-09-11 03:22:00,69.0,65.0,29.99,SSW,202,1.0,-999.0,88,-99.99,,,-99.99,,2013-09-11 08:22:00,
2013-09-11 03:52:00,68.0,65.0,29.98,NW,325,3.0,-999.0,91,-99.99,,,-99.99,,2013-09-11 08:52:00,
2013-09-11 04:12:00,67.0,64.0,30.00,NNW,336,8.0,-999.0,89,-99.99,,,-99.99,,2013-09-11 09:12:00,
2013-09-11 04:21:00,66.0,62.0,29.99,NW,313,7.0,-999.0,88,-99.99,,,-99.99,,2013-09-11 09:21:00,
2013-09-11 04:53:00,65.0,62.0,29.99,NNW,328,2.0,-999.0,91,-99.99,,,-99.99,,2013-09-11 09:53:00,
2013-09-11 05:13:00,65.0,62.0,29.98,NNW,328,2.0,-999.0,91,-99.99,,,-99.99,,2013-09-11 10:13:00,
2013-09-11 05:23:00,65.0,63.0,29.99,NNW,328,2.0,-999.0,92,-99.99,,,-99.99,,2013-09-11 10:23:00,
2013-09-11 05:42:00,65.0,63.0,29.99,NNW,328,0.0,-999.0,92,-99.99,,,-99.99,,2013-09-11 10:42:00,
2013-09-11 05:53:00,65.0,63.0,29.98,NNW,328,0.0,-999.0,93,-99.99,,,-99.99,,2013-09-11 10:53:00,
2013-09-11 06:12:00,65.0,63.0,29.99,NNW,328,0.0,-999.0,93,-99.99,,,-99.99,,2013-09-11 11:12:00,
2013-09-11 06:21:00,65.0,63.0,30.00,NNW,328,0.0,-999.0,93,-99.99,,,-99.99,,2013-09-11 11:21:00,
2013-09-11 06:52:00,65.0,63.0,30.01,NNW,328,0.0,-999.0,94,-99.99,,,-99.99,,2013-09-11 11:52:00,
2013-09-11 07:11:00,65.0,63.0,30.01,NNW,328,0.0,-999.0,94,-99.99,,,-99.99,,2013-09-11 12:11:00,
2013-09-11 07:21:00,65.0,63.0,30.01,NNW,328,0.0,-999.0,94,-99.99,,,-99.99,,2013-09-11 12:21:00,
2013-09-11 07:52:00,65.0,63.0,30.01,NNW,328,0.0,-999.0,94,-99.99,,,-99.99,,2013-09-11 12:52:00,
2013-09-11 08:12:00,66.0,65.0,30.02,NNW,328,1.0,-999.0,95,-99.99,,,-99.99,,2013-09-11 13:12:00,
2013-09-11 08:22:00,66.0,64.0,30.01,NNW,328,0.0,-999.0,94,-99.99,,,-99.99,,2013-09-11 13:22:00,
2013-09-11 08:52:00,67.0,65.0,30.02,NNW,328,0.0,-999.0,94,-99.99,,,-99.99,,2013-09-11 13:52:00,
2013-09-11 09:11:00,67.0,65.0,30.03,NNW,328,0.0,-999.0,93,-99.99,,,-99.99,,2013-09-11 14:11:00,
2013-09-11 09:22:00,68.0,66.0,30.03,NNW,328,1.0,-999.0,93,-99.99,,,-99.99,,2013-09-11 14:22:00,
2013-09-11 09:52:00,68.0,65.0,30.02,NW,315,0.0,-999.0,90,-99.99,,,-99.99,,2013-09-11 14:52:00,
2013-09-11 10:22:00,70.0,66.0,30.03,West,280,0.0,-999.0,87,-99.99,,,-99.99,,2013-09-11 15:22:00,
2013-09-11 10:43:00,71.0,66.0,30.03,SSW,205,1.0,-999.0,84,-99.99,,,-99.99,,2013-09-11 15:43:00,
2013-09-11 10:54:00,72.0,67.0,30.03,SSE,165,2.0,-999.0,83,-99.99,,,-99.99,,2013-09-11 15:54:00,
2013-09-11 11:13:00,74.0,67.0,30.03,South,191,2.0,-999.0,80,-99.99,,,-99.99,,2013-09-11 16:13:00,
2013-09-11 11:23:00,75.0,67.0,30.03,SSW,213,3.0,-999.0,76,-99.99,,,-99.99,,2013-09-11 16:23:00,
2013-09-11 11:53:00,76.0,65.0,30.03,SW,217,3.0,-999.0,68,-99.99,,,-99.99,,2013-09-11 16:53:00,
2013-09-11 12:03:00,76.0,65.0,30.03,SW,217,3.0,-999.0,68,-99.99,,,-99.99,,2013-09-11 17:03:00,
2013-09-11 12:12:00,76.0,65.0,30.03,SW,217,3.0,-999.0,68,-99.99,,,-99.99,,2013-09-11 17:12:00,
2013-09-11 12:23:00,79.0,66.0,30.02,WSW,245,3.0,-999.0,64,-99.99,,,-99.99,,2013-09-11 17:23:00,
2013-09-11 12:52:00,79.0,64.0,30.02,WNW,286,5.0,-999.0,60,-99.99,,,-99.99,,2013-09-11 17:52:00,
2013-09-11 13:12:00,79.0,64.0,30.02,WSW,256,3.0,-999.0,61,-99.99,,,-99.99,,2013-09-11 18:12:00,
2013-09-11 13:22:00,80.0,65.0,30.02,West,260,4.0,-999.0,60,-99.99,,,-99.99,,2013-09-11 18:22:00,
2013-09-11 13:52:00,81.0,65.0,30.01,West,278,5.0,-999.0,59,-99.99,,,-99.99,,2013-09-11 18:52:00,
2013-09-11 14:11:00,82.0,65.0,30.01,WSW,242,4.0,-999.0,57,-99.99,,,-99.99,,2013-09-11 19:11:00,
2013-09-11 14:22:00,82.0,66.0,30.01,WNW,287,6.0,-999.0,58,-99.99,,,-99.99,,2013-09-11 19:22:00,
2013-09-11 14:53:00,81.0,66.0,30.01,WNW,297,7.0,-999.0,61,-99.99,,,-99.99,,2013-09-11 19:53:00,
2013-09-11 15:12:00,81.0,66.0,30.00,West,268,6.0,-999.0,61,-99.99,,,-99.99,,2013-09-11 20:12:00,
2013-09-11 15:22:00,82.0,66.0,30.00,West,260,6.0,-999.0,58,-99.99,,,-99.99,,2013-09-11 20:22:00,
2013-09-11 15:52:00,83.0,67.0,29.99,West,271,5.0,-999.0,58,-99.99,,,-99.99,,2013-09-11 20:52:00,
2013-09-11 16:12:00,82.0,67.0,30.00,WSW,250,6.0,-999.0,60,-99.99,,,-99.99,,2013-09-11 21:12:00,
2013-09-11 16:22:00,82.0,67.0,30.00,WNW,294,6.0,-999.0,61,-99.99,,,-99.99,,2013-09-11 21:22:00,
2013-09-11 16:54:00,82.0,67.0,29.99,West,281,7.0,-999.0,60,-99.99,,,-99.99,,2013-09-11 21:54:00,
2013-09-11 17:13:00,82.0,66.0,29.99,NW,309,7.0,-999.0,58,-99.99,,,-99.99,,2013-09-11 22:13:00,
2013-09-11 17:24:00,82.0,66.0,29.99,West,267,7.0,-999.0,58,-99.99,,,-99.99,,2013-09-11 22:24:00,
2013-09-11 17:54:00,82.0,65.0,29.99,WNW,288,6.0,-999.0,56,-99.99,,,-99.99,,2013-09-11 22:54:00,
2013-09-11 18:12:00,81.0,64.0,29.99,WNW,287,5.0,-999.0,56,-99.99,,,-99.99,,2013-09-11 23:12:00,
2013-09-11 18:22:00,81.0,65.0,29.99,WNW,285,5.0,-999.0,58,-99.99,,,-99.99,,2013-09-11 23:22:00,
2013-09-11 18:53:00,80.0,66.0,29.98,WNW,285,3.0,-999.0,62,-99.99,,,-99.99,,2013-09-11 23:53:00,
2013-09-11 19:11:00,80.0,66.0,29.98,WNW,285,3.0,-999.0,63,-99.99,,,-99.99,,2013-09-12 00:11:00,
2013-09-11 19:21:00,79.0,66.0,29.98,WNW,285,3.0,-999.0,65,-99.99,,,-99.99,,2013-09-12 00:21:00,
2013-09-11 19:42:00,78.0,66.0,29.98,WNW,285,3.0,-999.0,66,-99.99,,,-99.99,,2013-09-12 00:42:00,
2013-09-11 19:52:00,77.0,65.0,29.98,WNW,285,2.0,-999.0,66,-99.99,,,-99.99,,2013-09-12 00:52:00,
2013-09-11 20:11:00,76.0,65.0,29.98,WNW,284,3.0,-999.0,68,-99.99,,,-99.99,,2013-09-12 01:11:00,
2013-09-11 20:22:00,75.0,64.0,29.99,WNW,283,3.0,-999.0,69,-99.99,,,-99.99,,2013-09-12 01:22:00,
2013-09-11 20:42:00,75.0,65.0,29.99,WNW,283,3.0,-999.0,71,-99.99,,,-99.99,,2013-09-12 01:42:00,
2013-09-11 20:52:00,74.0,65.0,30.00,WNW,283,2.0,-999.0,73,-99.99,,,-99.99,,2013-09-12 01:52:00,
2013-09-11 21:12:00,73.0,65.0,30.01,WNW,284,4.0,-999.0,76,-99.99,,,-99.99,,2013-09-12 02:12:00,
2013-09-11 21:22:00,72.0,64.0,30.01,WNW,284,3.0,-999.0,76,-99.99,,,-99.99,,2013-09-12 02:22:00,
2013-09-11 22:22:00,70.0,63.0,30.01,WNW,283,0.0,-999.0,79,-99.99,,,-99.99,,2013-09-12 03:22:00,
2013-09-11 22:55:00,69.0,63.0,30.02,WNW,283,1.0,-999.0,81,-99.99,,,-99.99,,2013-09-12 03:55:00,
2013-09-11 23:14:00,69.0,63.0,30.03,WNW,283,1.0,-999.0,80,-99.99,,,-99.99,,2013-09-12 04:14:00,
2013-09-11 23:24:00,68.0,61.0,30.02,WNW,283,0.0,-999.0,78,-99.99,,,-99.99,,2013-09-12 04:24:00,
2013-09-11 23:44:00,68.0,61.0,30.01,WNW,283,0.0,-999.0,78,-99.99,,,-99.99,,2013-09-12 04:44:00,
2013-09-11 23:54:00,68.0,60.0,30.01,WNW,283,0.0,-999.0,76,-99.99,,,-99.99,,2013-09-12 04:54:00,